Miscellaneous Local Product
Issued by NWS North Platte, NE

Home | Current Version | Previous Version | Graphics & Text | Print | Product List | Glossary On
Versions: 1 2 3 4 5 6 7 8 9 10 11 12 13 14 15 16 17 18 19 20 21 22 23 24 25 26 27 28 29 30 31 32 33 34 35 36 37 38 39 40 41 42 43 44 45 46 47 48 49 50
459
AXUS43 KLBF 130910
MISLBF


WESTERN AND NORTH CENTRAL NEBRASKA HOURLY WEATHER ROUNDUP
NATIONAL WEATHER SERVICE NORTH PLATTE NE
300 AM CST WED DEC 13 2017

NOTE: "FAIR" INDICATES FEW OR NO CLOUDS BELOW 12,000 FEET WITH NO
SIGNIFICANT WEATHER AND/OR OBSTRUCTIONS TO VISIBILITY.

NOTE: STATIONS NOT REPORTING VARIABLES SUCH AS SKY/WEATHER OR
PRESSURE ARE PROVIDED BY RAWS AND APRS NETWORKS AND ARE NOT UNDER
NATIONAL WEATHER SERVICE QUALITY CONTROL.

...OBSERVATIONS IN AND NEAR THE EASTERN PANHANDLE OF NEBRASKA...

CITY           SKY/WX    TMP DP  RH WIND       PRES   REMARKS
PINE RIDGE     CLOUDY    40  22  48 NW6       29.96R
GORDON         PTSUNNY   45  19  35 W8        29.93R
CHADRON        CLOUDY    49  13  23 W20       29.99R
ALLIANCE       CLOUDY    49  11  21 NW23G32   29.96R
SIDNEY         CLOUDY    43  11  27 NW15      30.01R
CRESCENT LAKE    N/A     45  12  26 NW13        N/A
$$

...OBSERVATIONS IN NORTHERN NEBRASKA AND FAR SOUTHERN SOUTH DAKOTA...

CITY           SKY/WX    TMP DP  RH WIND       PRES   REMARKS
WINNER         CLOUDY    55  22  27 NW24G35   29.75R
VALENTINE      CLOUDY    55  18  23 NW25G41   29.82R
THEDFORD       MOCLDY    46  21  37 W13       29.85S
AINSWORTH      CLOUDY    52  21  30 NW17G29   29.78S
O`NEILL        CLEAR     51  21  31 NW21G30   29.72R
ORD            PTCLDY    49  18  29 NW20G31   29.77R
BROKEN BOW     MOCLDY    53  17  24 NW24G32   29.80S
VALENTINE NWR    N/A     49  17  27 NW17G30     N/A
HALSEY           N/A     47  17  30 NW13G23     N/A
BUTTE            N/A     53  26  35 NW28G36     N/A
CHAMBERS         N/A     50  24  35 N12         N/A
EWING            N/A     50  22  33 NW16G25     N/A
$$

...OBSERVATIONS IN SOUTHWEST NEBRASKA AND FAR NORTHEAST COLORADO...

CITY           SKY/WX    TMP DP  RH WIND       PRES   REMARKS
WRAY           FAIR      39  12  33 W13       29.99R WCI  32
HOLYOKE        FAIR      48  10  21 NW13G21   29.97R
IMPERIAL       CLOUDY    40  13  33 W13       29.93R WCI  32
OGALLALA       CLOUDY    50  12  21 NW28G33   29.90S
NORTH PLATTE   CLOUDY    27  19  72 NW9       29.89R WCI  18
MCCOOK         CLOUDY    38  16  40 W18       29.88R WCI  28
LEXINGTON      CLOUDY    37  19  49 NW17      29.84R WCI  27
STAPLETON        N/A     41  20  42 CALM        N/A
GOTHENBURG       N/A     35  18  50 W7          N/A  WCI  29
CALLAWAY         N/A     39  21  48 NW9         N/A  WCI  33
$$

...OBSERVATIONS IN CENTRAL LINCOLN COUNTY AREA...

CITY           SKY/WX    TMP DP  RH WIND       PRES   REMARKS
N.P. AIRPORT   CLOUDY    27  19  72 NW9       29.89R WCI  18
N.P. DOWNTOWN    N/A     35  20  54 CALM        N/A
N.P. SOUTHEAST   N/A     37  19  48 CALM        N/A
N.P. HILLCREST   N/A     33  20  58 W8          N/A  WCI  26
$$

...SOME OBSERVATIONS FROM AROUND THE REGION...

CITY           SKY/WX    TMP DP  RH WIND       PRES   REMARKS
DENVER         CLOUDY    50   4  15 W14       30.05S
GRAND JUNCTION CLOUDY    26  10  50 E3        30.29S
LARAMIE        CLOUDY    35   3  26 W16       30.13S WCI  25
CHEYENNE       CLOUDY    42   4  20 NW12      30.07S
CASPER         CLOUDY    33  21  61 CALM      30.16R
BISMARCK       MOCLDY    43  30  60 NW26G40   29.71R
RAPID CITY     CLEAR     48  17  29 NW31G51   29.92R
PIERRE         CLOUDY    51  27  39 NW33G45   29.73R
SIOUX FALLS    PTCLDY    44  26  49 W16G24    29.52R
OMAHA          CLOUDY    30  22  72 S6        29.64F WCI  24
GRAND ISLAND   PTCLDY    38  22  52 W13       29.76R WCI  30
SCOTTSBLUFF    CLOUDY    40  15  36 W12       30.04R WCI  33
KANSAS CITY    CLEAR     36  27  69 SW14      29.77F WCI  27
HILL CITY      CLEAR     48  18  30 W12       29.86S
WICHITA        CLEAR     31  25  78 S8        29.87F WCI  23
DODGE CITY     CLEAR     43  15  32 W18       29.92S
OKLAHOMA CITY  CLEAR     34  25  69 S10       29.97F WCI  26
DALLAS         PTCLDY    36  29  75 S7        30.10F WCI  30
AMARILLO       CLOUDY    36   9  32 W8        30.06F WCI  30
$$




USA.gov is the U.S. government's official web portal to all federal, state and local government web resources and services.